RRR2205 EGPH-EGKK

Flight info

Callsign RRR2205
Flight time N/A
Altitude 35000
Route GOSAM P600 FENIK L612 NAVSO DCT ADZOP DCT EGTOC DCT KEPAD L151 DISIT
Aircraft B738/M-SDE2E3FGHIRWXY/LB1

Departure

Time 2026-05-01 10:19
Airport Edinburgh Airport (EGPH)

Arrival

Time N/A
Airport London Gatwick Airport (EGKK)
Time Latitude Longitude Altitude Speed Heading
2026-05-01 09:57 55.94758 -3.36623 106 ft 0 kts 101°
2026-05-01 10:07 55.94758 -3.36626 106 ft 1 kts 101°
2026-05-01 10:07 55.94761 -3.36656 105 ft 3 kts 97°
2026-05-01 10:07 55.94763 -3.36692 104 ft 3 kts 88°
2026-05-01 10:08 55.94753 -3.36743 104 ft 3 kts 357°
2026-05-01 10:08 55.94749 -3.36743 106 ft 0 kts 328°
2026-05-01 10:14 55.94781 -3.36771 106 ft 7 kts 343°
2026-05-01 10:14 55.94832 -3.36780 106 ft 8 kts 358°
2026-05-01 10:14 55.94885 -3.36796 104 ft 8 kts 333°
2026-05-01 10:15 55.94936 -3.36822 106 ft 8 kts 10°
2026-05-01 10:15 55.94973 -3.36758 106 ft 7 kts 55°
2026-05-01 10:15 55.95001 -3.36678 106 ft 8 kts 59°
2026-05-01 10:15 55.95038 -3.36569 106 ft 12 kts 59°
2026-05-01 10:16 55.95088 -3.36423 105 ft 15 kts 58°
2026-05-01 10:16 55.95148 -3.36247 105 ft 18 kts 58°
2026-05-01 10:16 55.95293 -3.35820 105 ft 22 kts 59°
2026-05-01 10:17 55.95370 -3.35588 106 ft 21 kts 60°
2026-05-01 10:17 55.95536 -3.35478 106 ft 14 kts 328°
2026-05-01 10:17 55.95557 -3.35597 107 ft 6 kts 239°
2026-05-01 10:18 55.95452 -3.35911 105 ft 72 kts 239°
2026-05-01 10:18 55.95051 -3.37105 106 ft 150 kts 239°
2026-05-01 10:18 55.94433 -3.38948 476 ft 185 kts 239°
2026-05-01 10:19 55.93760 -3.40949 1458 ft 184 kts 237°
2026-05-01 10:19 55.93095 -3.42879 2531 ft 189 kts 236°
2026-05-01 10:19 55.92370 -3.44949 2913 ft 211 kts 236°
2026-05-01 10:20 55.90683 -3.49691 4033 ft 234 kts 241°
2026-05-01 10:20 55.90270 -3.52529 4832 ft 239 kts 257°
2026-05-01 10:20 55.89999 -3.55467 5591 ft 240 kts 256°
2026-05-01 10:20 55.89827 -3.57210 5874 ft 241 kts 256°
2026-05-01 10:21 55.89587 -3.59606 6135 ft 242 kts 256°
2026-05-01 10:21 55.89495 -3.60520 6174 ft 239 kts 256°